Showing default

GALAXY 34, 54027

Orbit data source: Space-Track

GALAXY 34, 54027 is a payload satellite owned by Intelsat SA (US) (US) in GEO that was launched on Sat, 08 Oct 2022 UTC via an FALCON 9 launch vehicle from the Air Force Eastern Test Range (AFETR). Payload-class satellites include a variety of spacecraft equipped with specific instruments for various scientific and technological missions. These include communications satellites like Starlink; space stations such as the ISS; scientific satellites like the Hubble; Earth observation satellites from companies like Planet Labs, Umbra, and HawkEye 360; GPS; miniature CubeSats for education and research; and military/defense satellites.

Loading next visibility...
Identifier
54027, 2022-128B
Orbit
GEO
Country
Flag of USUS
Related business
Manufacturer
NGIS SSG
Mission
Operational Commercial Communications
Bus & Motor
GEOSTAR-2.4E, BT-4?
Mass
3,650 kg wet, ~2,500 kg dry
Launch date (UTC)
2022-10-08 (3 years ago)
Launch vehicle
FALCON 9
Launch site
Air Force Eastern Test Range (AFETR)
Object type
Payload
Rocket body
Debris
Shape & HBR
Box + 2 Pan, 11.5 m
Radar Cross Section
29.373 m², Large (>1 m²)

Expand to show TLE details & history
Last TLE update: 12 hours ago

TLE from 12 hours ago
0 GALAXY 34
1 54027U 22128B   26014.21421857  .00000000  00000-0  00000-0 0  9996
2 54027   0.0189  38.7839 0001552 254.6866 128.4120  1.00272315 12367
Epoch: 2026-01-14T05:08Z
TLE epoch observation values (Epoch: 2026-01-14T05:08:28.484Z)
Latitude
0.01816°
Longitude
-128.89503°
Altitude
35,790.026 km
Speed
3.074 km/s
True Right ascension
04h 07m 38s
True Declination
0° 01' 05"
Sunlit
Object was in daylight at epoch
Visualization orbit readout
Latitude
Unknown
Longitude
Unknown
Altitude
Unknown
Speed
Unknown
Apparent Right ascension
Unknown
Apparent Declination
Unknown
Sunlit
N/A
Visualization observer readout
Local Sidereal Time
17:51:17
Azimuth
Unknown
Elevation
Unknown
Doppler factor
Unknown
Orbital elements
Apogee altitude
35,794.061 km
Perigee altitude
35,780.973 km
Semi-major axis
42,165.654 km
Eccentricity
0.00016
Inclination
0.0189°
RAAN
38.7839°
Arg. of periapsis
254.6866°
True anomaly
128.42593°
Mean anomaly
128.412°
Eccentric anomaly
128.41897°
Mean motion
0.25067 °/min
Orbital period
1,436.14 mins
BSTAR
0
Loading maneuver chart data...
Computing Atmospheric mass density...
Loading historical data...
Loading historical data...
Loading historical data...
Loading historical data...
Loading historical data...
Loading historical data...
Loading historical data...
Other satellites on launch #128 in the year 2022 (2022-10-08 UTC)

Documentation

Showing up to 5 results
|